Regional Weather Roundup
Issued by NWS Tiyan, Guam

Home | Current Version | Previous Version | Text Only | Print | Product List | Glossary On
Versions: 1 2 3 4 5 6 7 8 9 10 11 12 13 14 15 16 17 18 19 20 21 22 23 24 25 26 27 28 29 30 31 32 33 34 35 36 37 38 39 40 41 42 43 44 45 46 47 48 49 50
000
ASGM40 PGUM 020010
RWRGUM
WEATHER ROUNDUP FOR THE MARIANAS
NATIONAL WEATHER SERVICE TIYAN GU
1000 AM CHST WED SEP 02 2015

GUZ001>004-020100-
MARIANA ISLANDS-

CITY           SKY/WX    TMP DP  RH WIND       PRES   REMARKS
GUAM AIRPORT   PTSUNNY   82  77  83 E7        29.93R HX  91
ANDERSEN AFB   MOSUNNY   82  75  78 SE10      29.93S
ROTA AIRPORT   MOSUNNY   82  77  83 VRB6      29.93S HX  91
TINIAN AP      MOSUNNY   86  77  74 E9        29.90S HX  97
SAIPAN AP      MOSUNNY   82  79  89 E10       29.91S HX  93

$$



USA.gov is the U.S. government's official web portal to all federal, state and local government web resources and services.